{"data":{"norad_id":62136,"intl_designator":"2024-222Y","name":"STARLINK-32554","alt_names":[],"object_type":"PAYLOAD","status":"ACTIVE","operator":null,"country":"US","launch_date":"2024-11-27","launch_site_code":"AFETR","launch_vehicle":null,"mission":null,"orbit_class":"UNKNOWN","rcs_meters":null,"size_class":null,"mass_kg":null,"dimensions":null,"purposes":["comms"],"wikipedia_slug":null,"has_3d_model":false,"image_url":null,"decayed_at":null,"tle_current":{"epoch":"2026-05-25T03:37:40.726848Z","epoch_age_seconds":72103,"freshness":"FRESH","line1":"1 62136U 24222Y   26145.15116582  .00023790  00000+0  87102-3 0  9998","line2":"2 62136  43.0017  64.2934 0001249 252.4199 107.6516 15.27588846 84496","mean_motion":15.27588846,"eccentricity":0.0001249,"inclination_deg":43.0017,"raan_deg":64.2934,"arg_perigee_deg":252.4199,"mean_anomaly_deg":107.6516,"bstar":0.00087102,"rev_number":8449,"period_min":94.266202831387,"perigee_km":482.1656492261,"apogee_km":483.87956689619,"semimajor_km":6861.1596080611,"source":"CELESTRAK","updated_at":"2026-05-25T13:38:19.567806Z"}}}